TimeEDT,TemperatureF,Dew PointF,Humidity,Sea Level PressureIn,VisibilityMPH,Wind Direction,Wind SpeedMPH,Gust SpeedMPH,PrecipitationIn,Events,Conditions,WindDirDegrees,DateUTC
12:54 AM,68.0,63.0,84,30.16,7.0,Calm,Calm,-,N/A,,Clear,0,2013-06-23 04:54:00
1:54 AM,64.0,62.1,93,30.16,5.0,Calm,Calm,-,N/A,,Clear,0,2013-06-23 05:54:00
2:35 AM,62.6,60.8,94,30.17,2.5,Calm,Calm,-,N/A,,Clear,0,2013-06-23 06:35:00
2:44 AM,64.4,62.6,94,30.17,5.0,Calm,Calm,-,N/A,,Clear,0,2013-06-23 06:44:00
2:54 AM,63.0,61.0,93,30.15,4.0,North,3.5,-,N/A,,Clear,360,2013-06-23 06:54:00
3:37 AM,62.6,60.8,94,30.17,2.5,North,4.6,-,N/A,,Clear,350,2013-06-23 07:37:00
3:44 AM,62.6,60.8,94,30.17,4.0,North,4.6,-,N/A,,Clear,360,2013-06-23 07:44:00
3:54 AM,63.0,61.0,93,30.14,4.0,North,3.5,-,N/A,,Clear,10,2013-06-23 07:54:00
4:16 AM,62.6,60.8,94,30.17,1.5,Calm,Calm,-,N/A,,Clear,0,2013-06-23 08:16:00
4:35 AM,60.8,60.8,100,30.17,2.0,North,3.5,-,N/A,,Clear,360,2013-06-23 08:35:00
4:54 AM,61.0,60.1,97,30.14,3.0,Calm,Calm,-,N/A,,Clear,0,2013-06-23 08:54:00
5:54 AM,62.1,60.1,93,30.16,3.0,Calm,Calm,-,N/A,,Clear,0,2013-06-23 09:54:00
6:54 AM,62.1,60.1,93,30.17,1.8,Calm,Calm,-,N/A,,Clear,0,2013-06-23 10:54:00
7:04 AM,62.6,60.8,94,30.20,3.0,Calm,Calm,-,N/A,,Clear,0,2013-06-23 11:04:00
7:54 AM,66.9,64.0,90,30.19,6.0,Calm,Calm,-,N/A,,Clear,0,2013-06-23 11:54:00
8:54 AM,71.1,64.0,78,30.18,10.0,Variable,3.5,-,N/A,,Clear,0,2013-06-23 12:54:00
9:54 AM,75.0,64.0,69,30.17,10.0,SSW,6.9,-,N/A,,Clear,210,2013-06-23 13:54:00
10:54 AM,80.1,66.0,62,30.16,10.0,WSW,8.1,-,N/A,,Clear,240,2013-06-23 14:54:00
11:54 AM,82.9,66.0,56,30.15,10.0,SW,5.8,-,N/A,,Clear,220,2013-06-23 15:54:00
12:54 PM,84.9,63.0,48,30.12,10.0,SW,9.2,-,N/A,,Partly Cloudy,220,2013-06-23 16:54:00
1:54 PM,84.9,62.1,46,30.12,10.0,SW,11.5,-,N/A,,Partly Cloudy,220,2013-06-23 17:54:00
2:54 PM,84.9,61.0,44,30.09,10.0,Variable,5.8,-,N/A,,Partly Cloudy,0,2013-06-23 18:54:00
3:54 PM,87.1,60.1,40,30.08,10.0,West,8.1,-,N/A,,Scattered Clouds,260,2013-06-23 19:54:00
4:54 PM,87.1,60.1,40,30.07,10.0,WSW,10.4,-,N/A,,Clear,250,2013-06-23 20:54:00
5:54 PM,87.1,61.0,41,30.06,10.0,West,8.1,-,N/A,,Clear,260,2013-06-23 21:54:00
6:54 PM,84.0,61.0,46,30.06,10.0,SW,9.2,-,N/A,,Clear,230,2013-06-23 22:54:00
7:54 PM,82.0,63.0,52,30.07,10.0,WSW,4.6,-,N/A,,Clear,250,2013-06-23 23:54:00
8:54 PM,79.0,64.0,60,30.08,10.0,SW,5.8,-,N/A,,Partly Cloudy,230,2013-06-24 00:54:00
9:54 PM,77.0,62.1,60,30.09,10.0,SSW,5.8,-,N/A,,Clear,210,2013-06-24 01:54:00
10:54 PM,73.9,63.0,68,30.12,10.0,SW,4.6,-,N/A,,Clear,230,2013-06-24 02:54:00
11:54 PM,72.0,62.1,71,30.12,10.0,SSW,3.5,-,N/A,,Clear,200,2013-06-24 03:54:00